Torna al catalogo

COSMOS 1275 DEB

AttivoPO
NORAD 42198·DEBRIS·🇷🇺 Russia

Lanciato Jun 4, 1981 da Plesetsk Cosmodrome

Loading…

Prossimi Passaggi (prossime 24 ore)

TLE

AggiornatoSource: Space-Track

Epoca: Sep 14, 2026, 03:55 UTC

1 42198U 81053TN  26257.16322442  .00000755  00000-0  58258-3 0  9995
2 42198  82.8026 207.9632 0042504 103.0297 257.5618 13.91218153649072

Traccia COSMOS 1275 DEB in tempo reale con AllMySat

Download on the App Store